Time,TemperatureF,DewpointF,PressureIn,WindDirection,WindDirectionDegrees,WindSpeedMPH,WindSpeedGustMPH,Humidity,HourlyPrecipIn,Conditions,Clouds,dailyrainin,SoftwareType,DateUTC
2013-02-10 00:01:00,66.0,64.0,30.16,North,5,0.0,-999.0,93,-99.99,,,-99.99,,2013-02-10 10:01:00,
2013-02-10 00:11:00,66.0,64.0,30.16,North,5,0.0,-999.0,93,-99.99,,,-99.99,,2013-02-10 10:11:00,
2013-02-10 00:21:00,66.0,64.0,30.16,North,5,0.0,-999.0,93,-99.99,,,-99.99,,2013-02-10 10:21:00,
2013-02-10 00:31:00,65.0,63.0,30.16,North,5,0.0,-999.0,93,-99.99,,,-99.99,,2013-02-10 10:31:00,
2013-02-10 00:41:00,65.0,63.0,30.16,North,5,0.0,-999.0,93,-99.99,,,-99.99,,2013-02-10 10:41:00,
2013-02-10 00:51:00,65.0,63.0,30.15,North,5,0.0,-999.0,93,-99.99,,,-99.99,,2013-02-10 10:51:00,
2013-02-10 01:01:00,65.0,63.0,30.16,North,5,0.0,-999.0,93,-99.99,,,-99.99,,2013-02-10 11:01:00,
2013-02-10 01:11:00,65.0,63.0,30.16,North,5,0.0,-999.0,93,-99.99,,,-99.99,,2013-02-10 11:11:00,
2013-02-10 01:21:00,65.0,63.0,30.16,North,5,0.0,-999.0,94,-99.99,,,-99.99,,2013-02-10 11:21:00,
2013-02-10 01:31:00,65.0,63.0,30.15,North,5,0.0,-999.0,94,-99.99,,,-99.99,,2013-02-10 11:31:00,
2013-02-10 01:42:00,65.0,63.0,30.15,North,5,0.0,-999.0,94,-99.99,,,-99.99,,2013-02-10 11:42:00,
2013-02-10 01:52:00,65.0,63.0,30.15,North,5,0.0,-999.0,94,-99.99,,,-99.99,,2013-02-10 11:52:00,
2013-02-10 02:01:00,64.0,62.0,30.14,North,5,0.0,-999.0,94,-99.99,,,-99.99,,2013-02-10 12:01:00,
2013-02-10 02:12:00,64.0,62.0,30.14,North,5,0.0,-999.0,94,-99.99,,,-99.99,,2013-02-10 12:12:00,
2013-02-10 02:21:00,64.0,62.0,30.14,North,5,0.0,-999.0,94,-99.99,,,-99.99,,2013-02-10 12:21:00,
2013-02-10 02:32:00,64.0,62.0,30.14,North,5,0.0,-999.0,94,-99.99,,,-99.99,,2013-02-10 12:32:00,
2013-02-10 02:41:00,64.0,62.0,30.14,North,5,0.0,-999.0,94,-99.99,,,-99.99,,2013-02-10 12:41:00,
2013-02-10 02:52:00,64.0,62.0,30.13,North,5,0.0,-999.0,94,-99.99,,,-99.99,,2013-02-10 12:52:00,
2013-02-10 03:02:00,64.0,62.0,30.13,North,5,0.0,-999.0,94,-99.99,,,-99.99,,2013-02-10 13:02:00,
2013-02-10 03:11:00,64.0,62.0,30.13,North,5,0.0,-999.0,94,-99.99,,,-99.99,,2013-02-10 13:11:00,
2013-02-10 03:21:00,65.0,63.0,30.12,North,5,0.0,-999.0,94,-99.99,,,-99.99,,2013-02-10 13:21:00,
2013-02-10 03:31:00,65.0,63.0,30.12,North,5,0.0,-999.0,94,-99.99,,,-99.99,,2013-02-10 13:31:00,
2013-02-10 03:41:00,65.0,63.0,30.12,North,5,0.0,-999.0,94,-99.99,,,-99.99,,2013-02-10 13:41:00,
2013-02-10 03:51:00,65.0,63.0,30.12,North,5,0.0,-999.0,94,-99.99,,,-99.99,,2013-02-10 13:51:00,
2013-02-10 04:01:00,65.0,63.0,30.12,North,5,0.0,-999.0,94,-99.99,,,-99.99,,2013-02-10 14:01:00,
2013-02-10 04:11:00,65.0,63.0,30.12,North,5,0.0,-999.0,94,-99.99,,,-99.99,,2013-02-10 14:11:00,
2013-02-10 04:21:00,64.0,62.0,30.12,North,5,0.0,-999.0,94,-99.99,,,-99.99,,2013-02-10 14:21:00,
2013-02-10 04:31:00,64.0,62.0,30.11,North,5,0.0,-999.0,94,-99.99,,,-99.99,,2013-02-10 14:31:00,
2013-02-10 04:41:00,64.0,62.0,30.11,North,5,0.0,-999.0,94,-99.99,,,-99.99,,2013-02-10 14:41:00,
2013-02-10 04:52:00,64.0,62.0,30.12,North,5,0.0,-999.0,94,-99.99,,,-99.99,,2013-02-10 14:52:00,
2013-02-10 05:01:00,64.0,62.0,30.12,North,5,0.0,-999.0,94,-99.99,,,-99.99,,2013-02-10 15:01:00,
2013-02-10 05:11:00,64.0,62.0,30.12,North,5,0.0,-999.0,94,-99.99,,,-99.99,,2013-02-10 15:11:00,
2013-02-10 05:21:00,64.0,62.0,30.12,North,5,0.0,-999.0,94,-99.99,,,-99.99,,2013-02-10 15:21:00,
2013-02-10 05:31:00,64.0,62.0,30.12,North,5,0.0,-999.0,94,-99.99,,,-99.99,,2013-02-10 15:31:00,
2013-02-10 05:41:00,64.0,62.0,30.12,North,5,0.0,-999.0,94,-99.99,,,-99.99,,2013-02-10 15:41:00,
2013-02-10 05:51:00,64.0,62.0,30.13,North,5,0.0,-999.0,94,-99.99,,,-99.99,,2013-02-10 15:51:00,
2013-02-10 06:01:00,64.0,62.0,30.13,North,5,0.0,-999.0,94,-99.99,,,-99.99,,2013-02-10 16:01:00,
2013-02-10 06:11:00,64.0,62.0,30.14,North,5,0.0,-999.0,94,-99.99,,,-99.99,,2013-02-10 16:11:00,
2013-02-10 06:21:00,64.0,62.0,30.14,North,5,0.0,-999.0,94,-99.99,,,-99.99,,2013-02-10 16:21:00,
2013-02-10 06:32:00,64.0,62.0,30.14,North,5,0.0,-999.0,94,-99.99,,,-99.99,,2013-02-10 16:32:00,
2013-02-10 06:42:00,64.0,63.0,30.15,North,5,0.0,-999.0,95,-99.99,,,-99.99,,2013-02-10 16:42:00,
2013-02-10 06:51:00,64.0,63.0,30.15,North,5,0.0,-999.0,95,-99.99,,,-99.99,,2013-02-10 16:51:00,
2013-02-10 07:01:00,64.0,62.0,30.15,North,5,0.0,-999.0,94,-99.99,,,-99.99,,2013-02-10 17:01:00,
2013-02-10 07:11:00,64.0,62.0,30.15,North,5,0.0,-999.0,94,-99.99,,,-99.99,,2013-02-10 17:11:00,
2013-02-10 07:21:00,63.0,61.0,30.16,North,5,0.0,-999.0,94,-99.99,,,-99.99,,2013-02-10 17:21:00,
2013-02-10 07:31:00,63.0,61.0,30.16,North,5,0.0,-999.0,94,-99.99,,,-99.99,,2013-02-10 17:31:00,
2013-02-10 07:42:00,63.0,61.0,30.17,North,5,0.0,-999.0,94,-99.99,,,-99.99,,2013-02-10 17:42:00,
2013-02-10 07:52:00,63.0,61.0,30.17,North,5,0.0,-999.0,94,-99.99,,,-99.99,,2013-02-10 17:52:00,
2013-02-10 08:01:00,63.0,62.0,30.18,North,5,0.0,-999.0,95,-99.99,,,-99.99,,2013-02-10 18:01:00,
2013-02-10 08:11:00,64.0,63.0,30.18,North,5,0.0,-999.0,95,-99.99,,,-99.99,,2013-02-10 18:11:00,
2013-02-10 08:21:00,64.0,63.0,30.18,North,5,0.0,-999.0,95,-99.99,,,-99.99,,2013-02-10 18:21:00,
2013-02-10 08:31:00,64.0,63.0,30.19,North,5,0.0,-999.0,95,-99.99,,,-99.99,,2013-02-10 18:31:00,
2013-02-10 08:41:00,64.0,63.0,30.19,North,5,0.0,-999.0,95,-99.99,,,-99.99,,2013-02-10 18:41:00,
2013-02-10 08:51:00,64.0,63.0,30.19,North,5,0.0,-999.0,95,-99.99,,,-99.99,,2013-02-10 18:51:00,
2013-02-10 09:01:00,66.0,65.0,30.20,North,5,0.0,-999.0,95,-99.99,,,-99.99,,2013-02-10 19:01:00,
2013-02-10 09:11:00,67.0,66.0,30.20,North,5,0.0,-999.0,95,-99.99,,,-99.99,,2013-02-10 19:11:00,
2013-02-10 09:21:00,67.0,66.0,30.20,North,5,0.0,-999.0,95,-99.99,,,-99.99,,2013-02-10 19:21:00,
2013-02-10 09:31:00,68.0,67.0,30.20,North,5,0.0,-999.0,95,-99.99,,,-99.99,,2013-02-10 19:31:00,
2013-02-10 09:42:00,70.0,68.0,30.21,NW,323,0.0,-999.0,95,-99.99,,,-99.99,,2013-02-10 19:42:00,
2013-02-10 09:51:00,70.0,68.0,30.21,NW,323,0.0,-999.0,95,-99.99,,,-99.99,,2013-02-10 19:51:00,
2013-02-10 10:01:00,70.0,67.0,30.21,North,360,1.0,-999.0,89,-99.99,,,-99.99,,2013-02-10 20:01:00,
2013-02-10 10:11:00,70.0,67.0,30.21,North,360,1.0,-999.0,89,-99.99,,,-99.99,,2013-02-10 20:11:00,
2013-02-10 10:21:00,71.0,67.0,30.21,NNW,344,0.0,-999.0,86,-99.99,,,-99.99,,2013-02-10 20:21:00,
2013-02-10 10:31:00,72.0,67.0,30.21,NNW,333,1.0,-999.0,85,-99.99,,,-99.99,,2013-02-10 20:31:00,
2013-02-10 10:42:00,72.0,66.0,30.21,NNE,20,3.0,-999.0,81,-99.99,,,-99.99,,2013-02-10 20:42:00,
2013-02-10 10:52:00,72.0,66.0,30.21,NNE,20,3.0,-999.0,81,-99.99,,,-99.99,,2013-02-10 20:52:00,
2013-02-10 11:02:00,73.0,66.0,30.21,NNW,329,1.0,-999.0,80,-99.99,,,-99.99,,2013-02-10 21:02:00,
2013-02-10 11:11:00,73.0,66.0,30.21,NNW,329,1.0,-999.0,80,-99.99,,,-99.99,,2013-02-10 21:11:00,
2013-02-10 11:21:00,73.0,67.0,30.21,North,355,2.0,-999.0,81,-99.99,,,-99.99,,2013-02-10 21:21:00,
2013-02-10 11:32:00,74.0,68.0,30.20,ESE,103,1.0,-999.0,81,-99.99,,,-99.99,,2013-02-10 21:32:00,
2013-02-10 11:42:00,72.0,66.0,30.20,North,360,2.0,-999.0,81,-99.99,,,-99.99,,2013-02-10 21:42:00,
2013-02-10 11:51:00,72.0,66.0,30.20,North,360,2.0,-999.0,81,-99.99,,,-99.99,,2013-02-10 21:51:00,
2013-02-10 12:01:00,73.0,66.0,30.20,NNE,14,3.0,-999.0,78,-99.99,,,-99.99,,2013-02-10 22:01:00,
2013-02-10 12:11:00,75.0,67.0,30.19,North,5,4.0,-999.0,75,-99.99,,,-99.99,,2013-02-10 22:11:00,
2013-02-10 12:21:00,75.0,67.0,30.19,North,5,4.0,-999.0,75,-99.99,,,-99.99,,2013-02-10 22:21:00,
2013-02-10 12:31:00,75.0,67.0,30.19,North,350,5.0,-999.0,76,-99.99,,,-99.99,,2013-02-10 22:31:00,
2013-02-10 12:42:00,74.0,65.0,30.18,NNW,342,5.0,-999.0,74,-99.99,,,-99.99,,2013-02-10 22:42:00,
2013-02-10 12:52:00,74.0,65.0,30.18,NNW,342,5.0,-999.0,74,-99.99,,,-99.99,,2013-02-10 22:52:00,
2013-02-10 13:01:00,75.0,67.0,30.17,NW,308,5.0,-999.0,75,-99.99,,,-99.99,,2013-02-10 23:01:00,
2013-02-10 13:11:00,75.0,67.0,30.17,NW,308,5.0,-999.0,75,-99.99,,,-99.99,,2013-02-10 23:11:00,
2013-02-10 13:21:00,75.0,66.0,30.17,North,355,4.0,-999.0,74,-99.99,,,-99.99,,2013-02-10 23:21:00,
2013-02-10 13:31:00,75.0,66.0,30.16,ENE,70,5.0,-999.0,74,-99.99,,,-99.99,,2013-02-10 23:31:00,
2013-02-10 13:41:00,75.0,65.0,30.15,NNE,14,3.0,-999.0,71,-99.99,,,-99.99,,2013-02-10 23:41:00,
2013-02-10 13:52:00,75.0,65.0,30.15,NNE,14,3.0,-999.0,71,-99.99,,,-99.99,,2013-02-10 23:52:00,
2013-02-10 14:01:00,74.0,66.0,30.15,NNW,331,4.0,-999.0,76,-99.99,,,-99.99,,2013-02-11 00:01:00,
2013-02-10 14:11:00,75.0,66.0,30.14,NE,48,5.0,-999.0,73,-99.99,,,-99.99,,2013-02-11 00:11:00,
2013-02-10 14:21:00,75.0,66.0,30.14,NE,48,5.0,-999.0,73,-99.99,,,-99.99,,2013-02-11 00:21:00,
2013-02-10 14:31:00,74.0,66.0,30.13,NE,34,4.0,-999.0,75,-99.99,,,-99.99,,2013-02-11 00:31:00,
2013-02-10 14:41:00,73.0,66.0,30.13,NNE,19,3.0,-999.0,79,-99.99,,,-99.99,,2013-02-11 00:41:00,
2013-02-10 14:51:00,73.0,66.0,30.13,NNE,19,3.0,-999.0,79,-99.99,,,-99.99,,2013-02-11 00:51:00,
2013-02-10 15:01:00,74.0,66.0,30.13,NNE,17,4.0,-999.0,75,-99.99,,,-99.99,,2013-02-11 01:01:00,
2013-02-10 15:11:00,74.0,66.0,30.13,NNE,17,4.0,-999.0,75,-99.99,,,-99.99,,2013-02-11 01:11:00,
2013-02-10 15:21:00,75.0,67.0,30.12,ENE,75,2.0,-999.0,75,-99.99,,,-99.99,,2013-02-11 01:21:00,
2013-02-10 15:32:00,72.0,65.0,30.12,North,5,4.0,-999.0,80,-99.99,,,-99.99,,2013-02-11 01:32:00,
2013-02-10 15:41:00,73.0,66.0,30.12,NNE,24,3.0,-999.0,78,-99.99,,,-99.99,,2013-02-11 01:41:00,
2013-02-10 15:52:00,73.0,66.0,30.12,NNE,24,3.0,-999.0,78,-99.99,,,-99.99,,2013-02-11 01:52:00,
2013-02-10 16:01:00,74.0,67.0,30.11,NNE,26,3.0,-999.0,78,-99.99,,,-99.99,,2013-02-11 02:01:00,
2013-02-10 16:11:00,74.0,67.0,30.11,NNE,26,3.0,-999.0,78,-99.99,,,-99.99,,2013-02-11 02:11:00,
2013-02-10 16:21:00,73.0,66.0,30.11,North,349,3.0,-999.0,79,-99.99,,,-99.99,,2013-02-11 02:21:00,
2013-02-10 16:31:00,74.0,67.0,30.11,ENE,63,3.0,-999.0,78,-99.99,,,-99.99,,2013-02-11 02:31:00,
2013-02-10 16:41:00,72.0,65.0,30.11,NNE,18,4.0,-999.0,78,-99.99,,,-99.99,,2013-02-11 02:41:00,
2013-02-10 16:52:00,72.0,65.0,30.11,NNE,18,4.0,-999.0,78,-99.99,,,-99.99,,2013-02-11 02:52:00,
2013-02-10 17:01:00,71.0,65.0,30.12,NNE,19,2.0,-999.0,80,-99.99,,,-99.99,,2013-02-11 03:01:00,
2013-02-10 17:11:00,71.0,65.0,30.12,NNE,19,2.0,-999.0,80,-99.99,,,-99.99,,2013-02-11 03:11:00,
2013-02-10 17:21:00,72.0,66.0,30.12,NNW,346,1.0,-999.0,82,-99.99,,,-99.99,,2013-02-11 03:21:00,
2013-02-10 17:31:00,70.0,65.0,30.12,NNE,28,1.0,-999.0,84,-99.99,,,-99.99,,2013-02-11 03:31:00,
2013-02-10 17:41:00,71.0,66.0,30.12,NNE,21,1.0,-999.0,83,-99.99,,,-99.99,,2013-02-11 03:41:00,
2013-02-10 17:51:00,71.0,66.0,30.12,NNE,21,1.0,-999.0,83,-99.99,,,-99.99,,2013-02-11 03:51:00,
2013-02-10 18:01:00,70.0,65.0,30.12,NNE,22,1.0,-999.0,84,-99.99,,,-99.99,,2013-02-11 04:01:00,
2013-02-10 18:11:00,70.0,65.0,30.12,NNE,22,1.0,-999.0,84,-99.99,,,-99.99,,2013-02-11 04:11:00,
2013-02-10 18:21:00,70.0,65.0,30.12,North,11,0.0,-999.0,85,-99.99,,,-99.99,,2013-02-11 04:21:00,
2013-02-10 18:31:00,69.0,65.0,30.13,North,11,0.0,-999.0,86,-99.99,,,-99.99,,2013-02-11 04:31:00,
2013-02-10 18:41:00,69.0,65.0,30.13,North,11,0.0,-999.0,86,-99.99,,,-99.99,,2013-02-11 04:41:00,
2013-02-10 18:51:00,68.0,64.0,30.13,North,11,0.0,-999.0,87,-99.99,,,-99.99,,2013-02-11 04:51:00,
2013-02-10 19:01:00,68.0,65.0,30.13,North,11,0.0,-999.0,89,-99.99,,,-99.99,,2013-02-11 05:01:00,
2013-02-10 19:11:00,67.0,64.0,30.14,North,11,0.0,-999.0,89,-99.99,,,-99.99,,2013-02-11 05:11:00,
2013-02-10 19:22:00,67.0,64.0,30.14,North,11,0.0,-999.0,89,-99.99,,,-99.99,,2013-02-11 05:22:00,
2013-02-10 19:31:00,67.0,64.0,30.14,North,11,0.0,-999.0,90,-99.99,,,-99.99,,2013-02-11 05:31:00,
2013-02-10 19:42:00,67.0,64.0,30.14,North,11,0.0,-999.0,90,-99.99,,,-99.99,,2013-02-11 05:42:00,
2013-02-10 19:52:00,66.0,63.0,30.15,North,11,0.0,-999.0,91,-99.99,,,-99.99,,2013-02-11 05:52:00,
2013-02-10 20:01:00,66.0,63.0,30.16,North,11,0.0,-999.0,91,-99.99,,,-99.99,,2013-02-11 06:01:00,
2013-02-10 20:11:00,66.0,63.0,30.16,North,11,0.0,-999.0,91,-99.99,,,-99.99,,2013-02-11 06:11:00,
2013-02-10 20:21:00,65.0,63.0,30.16,North,11,0.0,-999.0,92,-99.99,,,-99.99,,2013-02-11 06:21:00,
2013-02-10 20:31:00,65.0,63.0,30.16,North,11,0.0,-999.0,92,-99.99,,,-99.99,,2013-02-11 06:31:00,
2013-02-10 20:42:00,65.0,63.0,30.16,North,11,0.0,-999.0,92,-99.99,,,-99.99,,2013-02-11 06:42:00,
2013-02-10 20:51:00,65.0,63.0,30.16,North,11,0.0,-999.0,92,-99.99,,,-99.99,,2013-02-11 06:51:00,
2013-02-10 21:01:00,64.0,62.0,30.17,North,11,0.0,-999.0,92,-99.99,,,-99.99,,2013-02-11 07:01:00,
2013-02-10 21:11:00,64.0,62.0,30.17,North,11,0.0,-999.0,92,-99.99,,,-99.99,,2013-02-11 07:11:00,
2013-02-10 21:21:00,64.0,62.0,30.17,North,11,0.0,-999.0,92,-99.99,,,-99.99,,2013-02-11 07:21:00,
2013-02-10 21:31:00,64.0,62.0,30.18,North,11,0.0,-999.0,93,-99.99,,,-99.99,,2013-02-11 07:31:00,
2013-02-10 21:41:00,64.0,62.0,30.19,North,11,0.0,-999.0,93,-99.99,,,-99.99,,2013-02-11 07:41:00,
2013-02-10 21:51:00,64.0,62.0,30.19,North,11,0.0,-999.0,93,-99.99,,,-99.99,,2013-02-11 07:51:00,
2013-02-10 22:01:00,64.0,62.0,30.19,North,11,0.0,-999.0,93,-99.99,,,-99.99,,2013-02-11 08:01:00,
2013-02-10 22:11:00,64.0,62.0,30.19,North,11,0.0,-999.0,93,-99.99,,,-99.99,,2013-02-11 08:11:00,
2013-02-10 22:21:00,64.0,62.0,30.19,North,11,0.0,-999.0,93,-99.99,,,-99.99,,2013-02-11 08:21:00,
2013-02-10 22:31:00,63.0,61.0,30.19,North,11,0.0,-999.0,93,-99.99,,,-99.99,,2013-02-11 08:31:00,
2013-02-10 22:42:00,63.0,61.0,30.19,North,11,0.0,-999.0,93,-99.99,,,-99.99,,2013-02-11 08:42:00,
2013-02-10 22:51:00,63.0,61.0,30.19,North,11,0.0,-999.0,93,-99.99,,,-99.99,,2013-02-11 08:51:00,
2013-02-10 23:01:00,63.0,61.0,30.20,North,11,0.0,-999.0,94,-99.99,,,-99.99,,2013-02-11 09:01:00,
2013-02-10 23:12:00,63.0,61.0,30.20,North,11,0.0,-999.0,94,-99.99,,,-99.99,,2013-02-11 09:12:00,
2013-02-10 23:21:00,64.0,62.0,30.20,North,11,0.0,-999.0,94,-99.99,,,-99.99,,2013-02-11 09:21:00,
2013-02-10 23:31:00,64.0,62.0,30.20,North,11,0.0,-999.0,94,-99.99,,,-99.99,,2013-02-11 09:31:00,
2013-02-10 23:41:00,64.0,62.0,30.20,North,11,0.0,-999.0,94,-99.99,,,-99.99,,2013-02-11 09:41:00,
2013-02-10 23:51:00,64.0,62.0,30.21,North,11,0.0,-999.0,94,-99.99,,,-99.99,,2013-02-11 09:51:00,